DLH763 VIDP-EDDM

Flight info

Callsign DLH763
Flight time 7h 46m
Altitude 36000
Route OROTI7F OROTI A589 BUTOP M875 JHANG A466 DI N644 LEMOD A909 BODBA/N0501F380 A909 RODAR N644 TETRO M10 SARPI UM10 GOKPA UL746 ODERO DCT OPT DCT ENIMA DCT ERUKO DCT GESBA DCT MOPUG DCT SUNIS DCT AMADI Q113 NAPSA NAPSA4A
Aircraft A388/J-SADE2E3FGHIJ3J4J5M1RWXY/LB1D1

Departure

Time 2026-04-29 20:19
Airport Indira Gandhi International Airport (VIDP)

Arrival

Time 2026-04-30 04:05
Airport Munich Airport (EDDM)
Time Latitude Longitude Altitude Speed Heading
2026-04-29 18:53 28.55643 77.08177 756 ft 0 kts 148°
2026-04-29 20:06 28.55656 77.08168 750 ft 4 kts 152°
2026-04-29 20:06 28.55680 77.08156 750 ft 4 kts 164°
2026-04-29 20:06 28.55705 77.08151 750 ft 4 kts 181°
2026-04-29 20:06 28.55730 77.08157 750 ft 4 kts 217°
2026-04-29 20:07 28.55739 77.08165 750 ft 2 kts 237°
2026-04-29 20:12 28.55737 77.08162 755 ft 2 kts 237°
2026-04-29 20:12 28.55721 77.08134 750 ft 6 kts 238°
2026-04-29 20:12 28.55704 77.08103 752 ft 5 kts 239°
2026-04-29 20:12 28.55681 77.08057 753 ft 8 kts 241°
2026-04-29 20:13 28.55647 77.07993 751 ft 11 kts 238°
2026-04-29 20:13 28.55625 77.07912 753 ft 12 kts 268°
2026-04-29 20:13 28.55585 77.07852 751 ft 10 kts 198°
2026-04-29 20:13 28.55509 77.07829 750 ft 12 kts 194°
2026-04-29 20:14 28.55424 77.07805 752 ft 13 kts 194°
2026-04-29 20:14 28.55332 77.07778 751 ft 14 kts 194°
2026-04-29 20:14 28.55234 77.07750 752 ft 15 kts 194°
2026-04-29 20:14 28.55157 77.07715 755 ft 11 kts 237°
2026-04-29 20:15 28.55157 77.07635 752 ft 12 kts 285°
2026-04-29 20:15 28.55181 77.07537 753 ft 14 kts 286°
2026-04-29 20:15 28.55209 77.07421 753 ft 16 kts 281°
2026-04-29 20:15 28.55237 77.07290 755 ft 18 kts 284°
2026-04-29 20:16 28.55269 77.07147 753 ft 19 kts 284°
2026-04-29 20:16 28.55303 77.07001 753 ft 15 kts 285°
2026-04-29 20:16 28.55301 77.06925 751 ft 9 kts 233°
2026-04-29 20:16 28.55243 77.06894 754 ft 10 kts 194°
2026-04-29 20:17 28.55165 77.06875 751 ft 13 kts 193°
2026-04-29 20:17 28.55072 77.06851 751 ft 15 kts 193°
2026-04-29 20:17 28.55009 77.06870 753 ft 9 kts 113°
2026-04-29 20:17 28.55002 77.06893 752 ft 0 kts 107°
2026-04-29 20:18 28.54997 77.06914 750 ft 20 kts 107°
2026-04-29 20:18 28.54898 77.07355 753 ft 94 kts 104°
2026-04-29 20:18 28.54697 77.08300 755 ft 151 kts 104°
2026-04-29 20:18 28.54434 77.09582 901 ft 173 kts 103°
2026-04-29 20:19 28.54180 77.10902 1459 ft 171 kts 105°
2026-04-29 20:19 28.53909 77.12105 1886 ft 178 kts 107°
2026-04-29 20:19 28.53460 77.13446 2229 ft 181 kts 129°
2026-04-29 20:19 28.52484 77.14346 2535 ft 189 kts 156°
2026-04-29 20:20 28.51175 77.14692 2643 ft 201 kts 184°
2026-04-29 20:20 28.49795 77.14303 2761 ft 208 kts 198°
2026-04-29 20:20 28.48386 77.13849 2811 ft 219 kts 195°
2026-04-29 20:20 28.46870 77.13445 2851 ft 230 kts 194°
2026-04-29 20:21 28.45228 77.13015 3014 ft 251 kts 194°
2026-04-29 20:21 28.43466 77.12545 3209 ft 269 kts 194°
2026-04-29 20:21 28.41638 77.12050 3842 ft 269 kts 195°
2026-04-29 20:21 28.39807 77.11552 4472 ft 273 kts 195°
2026-04-29 20:22 28.37945 77.11041 5062 ft 277 kts 195°
2026-04-29 20:22 28.36063 77.10525 5702 ft 280 kts 196°
2026-04-29 20:22 28.34270 77.09801 6257 ft 280 kts 214°
2026-04-29 20:22 28.32888 77.08278 6890 ft 275 kts 241°
2026-04-29 20:23 28.32268 77.06267 7532 ft 271 kts 266°
2026-04-29 20:23 28.32489 77.04161 8148 ft 271 kts 287°
2026-04-29 20:23 28.33024 77.02098 8791 ft 273 kts 286°
2026-04-29 20:23 28.33525 77.00024 9475 ft 274 kts 285°
2026-04-29 20:24 28.34012 76.97913 9962 ft 282 kts 285°
2026-04-29 20:24 28.34521 76.95679 10112 ft 301 kts 285°
2026-04-29 20:24 28.35055 76.93320 10259 ft 318 kts 285°
2026-04-29 20:24 28.35608 76.90879 10609 ft 326 kts 285°
2026-04-29 20:25 28.36174 76.88383 11213 ft 327 kts 285°
2026-04-29 20:25 28.36741 76.85876 11799 ft 329 kts 285°
2026-04-29 20:25 28.37321 76.83458 12361 ft 330 kts 288°
2026-04-29 20:25 28.38184 76.81038 12958 ft 332 kts 294°
2026-04-29 20:26 28.39147 76.78653 13542 ft 333 kts 294°
2026-04-29 20:26 28.40106 76.76236 14035 ft 336 kts 294°
2026-04-29 20:26 28.41062 76.73806 14509 ft 340 kts 294°
2026-04-29 20:26 28.42017 76.71377 14975 ft 343 kts 294°
2026-04-29 20:27 28.42994 76.68888 15462 ft 346 kts 294°
2026-04-29 20:27 28.43661 76.67190 15778 ft 349 kts 294°
2026-04-29 20:27 28.44976 76.63843 16402 ft 353 kts 294°
2026-04-29 20:27 28.45965 76.61326 16839 ft 356 kts 294°
2026-04-29 20:28 28.46979 76.58743 17307 ft 359 kts 294°
2026-04-29 20:28 28.48000 76.56138 17774 ft 362 kts 294°
2026-04-29 20:28 28.49030 76.53512 18187 ft 365 kts 294°
2026-04-29 20:28 28.50067 76.50863 18612 ft 367 kts 294°
2026-04-29 20:29 28.51091 76.48249 19018 ft 368 kts 294°
2026-04-29 20:29 28.52135 76.45579 19435 ft 370 kts 294°
2026-04-29 20:29 28.53193 76.42910 19834 ft 372 kts 294°
2026-04-29 20:29 28.54274 76.40224 20229 ft 374 kts 294°
2026-04-29 20:30 28.55359 76.37534 20609 ft 376 kts 294°
2026-04-29 20:30 28.56453 76.34815 21004 ft 378 kts 294°
2026-04-29 20:30 28.57546 76.32092 21377 ft 381 kts 294°
2026-04-29 20:30 28.58630 76.29384 21753 ft 383 kts 294°
2026-04-29 20:31 28.59738 76.26614 22125 ft 385 kts 294°
2026-04-29 20:31 28.60848 76.23834 22496 ft 388 kts 293°
2026-04-29 20:31 28.61967 76.21030 22856 ft 390 kts 293°
2026-04-29 20:31 28.63092 76.18210 23217 ft 393 kts 293°
2026-04-29 20:32 28.64224 76.15372 23531 ft 395 kts 293°
2026-04-29 20:32 28.65357 76.12526 23861 ft 396 kts 293°
2026-04-29 20:32 28.66497 76.09664 24192 ft 398 kts 293°
2026-04-29 20:32 28.67643 76.06781 24501 ft 400 kts 293°
2026-04-29 20:33 28.68791 76.03892 24834 ft 402 kts 293°
2026-04-29 20:33 28.69929 76.01027 25171 ft 404 kts 293°
2026-04-29 20:33 28.71090 75.98102 25526 ft 405 kts 293°
2026-04-29 20:33 28.72250 75.95177 25898 ft 407 kts 293°
2026-04-29 20:34 28.73436 75.92231 26258 ft 410 kts 296°
2026-04-29 20:34 28.74964 75.89486 26621 ft 414 kts 307°
2026-04-29 20:34 28.76948 75.87084 27023 ft 418 kts 317°
2026-04-29 20:34 28.79309 75.85118 27420 ft 423 kts 326°
2026-04-29 20:35 28.81791 75.83376 27768 ft 426 kts 325°
2026-04-29 20:35 28.84308 75.81583 28184 ft 428 kts 325°
2026-04-29 20:35 28.86838 75.79768 28572 ft 430 kts 325°
2026-04-29 20:35 28.89376 75.77946 28959 ft 433 kts 325°
2026-04-29 20:36 28.91934 75.76109 29348 ft 436 kts 325°
2026-04-29 20:36 28.94504 75.74264 29742 ft 438 kts 325°
2026-04-29 20:36 28.97088 75.72409 30122 ft 439 kts 325°
2026-04-29 20:36 28.99677 75.70550 30561 ft 439 kts 325°
2026-04-29 20:37 29.02264 75.68692 30963 ft 440 kts 325°
2026-04-29 20:37 29.04819 75.66854 31352 ft 440 kts 325°
2026-04-29 20:37 29.07415 75.64987 31724 ft 441 kts 325°
2026-04-29 20:37 29.10009 75.63119 32118 ft 442 kts 325°
2026-04-29 20:38 29.12617 75.61240 32499 ft 443 kts 325°
2026-04-29 20:38 29.15230 75.59357 32869 ft 444 kts 325°
2026-04-29 20:38 29.17846 75.57471 33248 ft 445 kts 325°
2026-04-29 20:38 29.20467 75.55579 33599 ft 446 kts 325°
2026-04-29 20:39 29.23093 75.53682 33904 ft 447 kts 325°
2026-04-29 20:39 29.25581 75.51629 34160 ft 446 kts 317°
2026-04-29 20:39 29.27815 75.49171 34512 ft 444 kts 311°
2026-04-29 20:39 29.29731 75.46414 34938 ft 442 kts 304°
2026-04-29 20:40 29.31307 75.43416 35354 ft 439 kts 298°
2026-04-29 20:40 29.32762 75.40342 35641 ft 438 kts 302°
2026-04-29 20:40 29.36312 75.34635 35677 ft 441 kts 306°
2026-04-29 20:41 29.39956 75.29031 35675 ft 441 kts 306°
2026-04-29 20:41 29.43607 75.23372 35671 ft 442 kts 306°
2026-04-29 20:42 29.47261 75.17703 35677 ft 441 kts 306°
2026-04-29 20:42 29.50913 75.12033 35682 ft 443 kts 306°
2026-04-29 20:43 29.54545 75.06385 35692 ft 443 kts 306°
2026-04-29 20:43 29.58210 75.00679 35696 ft 443 kts 306°
2026-04-29 20:44 29.61865 74.94980 35699 ft 443 kts 306°
2026-04-29 20:44 29.65508 74.89293 35695 ft 441 kts 306°
2026-04-29 20:45 29.69144 74.83608 35690 ft 440 kts 306°
2026-04-29 20:45 29.72733 74.77989 35682 ft 439 kts 306°
2026-04-29 20:46 29.76340 74.72333 35682 ft 437 kts 306°
2026-04-29 20:46 29.79932 74.66695 35686 ft 436 kts 306°
2026-04-29 20:47 29.83510 74.61069 35666 ft 435 kts 306°
2026-04-29 20:47 29.87047 74.55501 35666 ft 434 kts 306°
2026-04-29 20:48 29.90615 74.49875 35664 ft 434 kts 306°
2026-04-29 20:48 29.94173 74.44258 35666 ft 434 kts 306°
2026-04-29 20:49 29.97724 74.38646 35668 ft 434 kts 306°
2026-04-29 20:49 30.01252 74.33060 35671 ft 434 kts 306°
2026-04-29 20:50 30.04802 74.27432 35675 ft 434 kts 306°
2026-04-29 20:50 30.08347 74.21805 35676 ft 433 kts 306°
2026-04-29 20:51 30.11869 74.16205 35680 ft 433 kts 306°
2026-04-29 20:51 30.15395 74.10594 35682 ft 433 kts 306°
2026-04-29 20:52 30.18940 74.04942 35680 ft 433 kts 306°
2026-04-29 20:52 30.22473 73.99303 35683 ft 433 kts 306°
2026-04-29 20:53 30.26001 73.93669 35681 ft 432 kts 306°
2026-04-29 20:53 30.29529 73.88043 35682 ft 432 kts 306°
2026-04-29 20:54 30.34785 73.79646 35680 ft 431 kts 305°
2026-04-29 20:55 30.38301 73.74019 35686 ft 431 kts 305°
2026-04-29 20:55 30.41814 73.68388 35686 ft 431 kts 305°
2026-04-29 20:56 30.45311 73.62774 35688 ft 431 kts 305°
2026-04-29 20:56 30.48784 73.57192 35688 ft 430 kts 305°
2026-04-29 20:57 30.52294 73.51542 35689 ft 430 kts 305°
2026-04-29 20:57 30.55789 73.45907 35691 ft 430 kts 305°
2026-04-29 20:58 30.59278 73.40275 35693 ft 430 kts 305°
2026-04-29 20:58 30.62746 73.34669 35693 ft 430 kts 305°
2026-04-29 20:59 30.66231 73.29027 35689 ft 430 kts 305°
2026-04-29 20:59 30.69715 73.23379 35692 ft 430 kts 305°
2026-04-29 21:00 30.73194 73.17735 35692 ft 430 kts 305°
2026-04-29 21:00 30.76677 73.12079 35690 ft 430 kts 305°
2026-04-29 21:01 30.80129 73.06463 35690 ft 430 kts 305°
2026-04-29 21:01 30.83608 73.00795 35689 ft 430 kts 305°
2026-04-29 21:02 30.87085 72.95121 35692 ft 430 kts 305°
2026-04-29 21:02 30.90555 72.89452 35692 ft 430 kts 305°
2026-04-29 21:03 30.93996 72.83821 35694 ft 429 kts 305°
2026-04-29 21:03 30.97459 72.78148 35693 ft 429 kts 304°
2026-04-29 21:04 31.00912 72.72480 35690 ft 429 kts 304°
2026-04-29 21:04 31.04326 72.66871 35690 ft 429 kts 304°
2026-04-29 21:05 31.07795 72.61161 35684 ft 429 kts 304°
2026-04-29 21:05 31.11247 72.55472 35685 ft 430 kts 304°
2026-04-29 21:06 31.14664 72.49834 35691 ft 431 kts 304°
2026-04-29 21:06 31.18125 72.44112 35697 ft 431 kts 304°
2026-04-29 21:07 31.21564 72.38421 35707 ft 432 kts 304°
2026-04-29 21:07 31.25028 72.32678 35715 ft 433 kts 303°
2026-04-29 21:08 31.28184 72.26709 35713 ft 432 kts 297°
2026-04-29 21:08 31.31021 72.20568 35711 ft 432 kts 298°
2026-04-29 21:09 31.33891 72.14406 35714 ft 431 kts 298°
2026-04-29 21:09 31.36751 72.08242 35710 ft 431 kts 298°
2026-04-29 21:10 31.39601 72.02082 35705 ft 430 kts 298°
2026-04-29 21:10 31.42439 71.95938 35702 ft 429 kts 298°
2026-04-29 21:11 31.45255 71.89832 35699 ft 428 kts 298°
2026-04-29 21:11 31.48078 71.83700 35696 ft 427 kts 298°
2026-04-29 21:12 31.50891 71.77581 35693 ft 427 kts 298°
2026-04-29 21:12 31.53679 71.71505 35687 ft 426 kts 298°
2026-04-29 21:13 31.56484 71.65382 35685 ft 426 kts 298°
2026-04-29 21:13 31.59284 71.59262 35687 ft 426 kts 298°
2026-04-29 21:14 31.62080 71.53132 35691 ft 426 kts 298°
2026-04-29 21:14 31.64853 71.47041 35693 ft 426 kts 298°
2026-04-29 21:15 31.67642 71.40908 35696 ft 426 kts 298°
2026-04-29 21:15 31.70427 71.34773 35698 ft 426 kts 298°
2026-04-29 21:16 31.73208 71.28634 35699 ft 425 kts 298°
2026-04-29 21:16 31.75986 71.22495 35704 ft 425 kts 298°
2026-04-29 21:17 31.78736 71.16406 35699 ft 425 kts 297°
2026-04-29 21:17 31.81501 71.10274 35701 ft 424 kts 297°
2026-04-29 21:18 31.84261 71.04142 35700 ft 424 kts 297°
2026-04-29 21:18 31.87018 70.98007 35699 ft 424 kts 297°
2026-04-29 21:19 31.89750 70.91917 35701 ft 424 kts 297°
2026-04-29 21:19 31.92889 70.86046 35705 ft 425 kts 306°
2026-04-29 21:20 31.96519 70.80564 35707 ft 425 kts 306°
2026-04-29 21:20 32.00102 70.75085 35706 ft 425 kts 306°
2026-04-29 21:21 32.03706 70.69571 35709 ft 425 kts 306°
2026-04-29 21:21 32.07313 70.64051 35710 ft 425 kts 306°
2026-04-29 21:22 32.10921 70.58521 35713 ft 425 kts 306°
2026-04-29 21:22 32.14503 70.53025 35710 ft 425 kts 306°
2026-04-29 21:23 32.18104 70.47491 35719 ft 425 kts 306°
2026-04-29 21:23 32.21708 70.41944 35725 ft 425 kts 306°
2026-04-29 21:24 32.25298 70.36410 35732 ft 425 kts 306°
2026-04-29 21:24 32.28872 70.30893 35741 ft 425 kts 306°
2026-04-29 21:25 32.32465 70.25340 35756 ft 425 kts 305°
2026-04-29 21:25 32.36053 70.19784 35763 ft 425 kts 305°
2026-04-29 21:26 32.39677 70.14254 35772 ft 426 kts 306°
2026-04-29 21:26 32.43364 70.08773 35783 ft 426 kts 306°
2026-04-29 21:27 32.46425 70.04202 35792 ft 426 kts 306°
2026-04-29 21:27 32.50696 69.97794 35805 ft 427 kts 306°
2026-04-29 21:28 32.54347 69.92303 35810 ft 427 kts 306°
2026-04-29 21:28 32.58038 69.86743 35830 ft 426 kts 306°
2026-04-29 21:29 32.61673 69.81261 35829 ft 426 kts 306°
2026-04-29 21:29 32.65329 69.75739 35842 ft 426 kts 305°
2026-04-29 21:30 32.68992 69.70196 35848 ft 427 kts 306°
2026-04-29 21:30 32.72655 69.64647 35852 ft 427 kts 306°
2026-04-29 21:31 32.76298 69.59121 35856 ft 428 kts 306°
2026-04-29 21:31 32.79960 69.53557 35864 ft 427 kts 306°
2026-04-29 21:32 32.83617 69.47994 35862 ft 427 kts 305°
2026-04-29 21:32 32.87276 69.42419 35868 ft 427 kts 305°
2026-04-29 21:33 32.90884 69.36888 35870 ft 426 kts 305°
2026-04-29 21:33 32.94515 69.31309 35861 ft 426 kts 305°
2026-04-29 21:34 32.98147 69.25724 35876 ft 426 kts 305°
2026-04-29 21:34 33.01779 69.20133 35873 ft 427 kts 305°
2026-04-29 21:35 33.05378 69.14585 35877 ft 426 kts 305°
2026-04-29 21:35 33.09009 69.08977 35874 ft 427 kts 305°
2026-04-29 21:36 33.12631 69.03378 35873 ft 426 kts 305°
2026-04-29 21:36 33.16245 68.97779 35859 ft 427 kts 305°
2026-04-29 21:37 33.19852 68.92182 35862 ft 428 kts 305°
2026-04-29 21:37 33.23479 68.86547 35859 ft 429 kts 305°
2026-04-29 21:38 33.27111 68.80895 35864 ft 429 kts 305°
2026-04-29 21:38 33.30889 68.75348 35860 ft 431 kts 308°
2026-04-29 21:39 33.34819 68.69993 35863 ft 431 kts 308°
2026-04-29 21:39 33.38745 68.64562 35868 ft 432 kts 307°
2026-04-29 21:40 33.42646 68.59111 35869 ft 432 kts 307°
2026-04-29 21:40 33.46549 68.53644 35872 ft 431 kts 307°
2026-04-29 21:41 33.50418 68.48216 35882 ft 431 kts 307°
2026-04-29 21:41 33.54314 68.42741 35887 ft 431 kts 307°
2026-04-29 21:42 33.58146 68.37226 35895 ft 431 kts 306°
2026-04-29 21:42 33.61288 68.32586 35908 ft 431 kts 306°
2026-04-29 21:43 33.65682 68.26117 35918 ft 430 kts 306°
2026-04-29 21:43 33.69470 68.20548 35933 ft 430 kts 306°
2026-04-29 21:44 33.73250 68.14985 35954 ft 429 kts 307°
2026-04-29 21:44 33.77020 68.09434 35948 ft 427 kts 307°
2026-04-29 21:45 33.80750 68.03926 35968 ft 428 kts 306°
2026-04-29 21:45 33.84510 67.98363 35981 ft 430 kts 306°
2026-04-29 21:46 33.88282 67.92776 35995 ft 431 kts 306°
2026-04-29 21:46 33.92062 67.87169 36011 ft 431 kts 306°
2026-04-29 21:47 33.95811 67.81601 36018 ft 430 kts 306°
2026-04-29 21:47 33.99564 67.76008 36016 ft 429 kts 305°
2026-04-29 21:48 34.03282 67.70373 36008 ft 429 kts 305°
2026-04-29 21:48 34.06988 67.64752 35992 ft 428 kts 305°
2026-04-29 21:49 34.10673 67.59157 36014 ft 430 kts 305°
2026-04-29 21:49 34.14386 67.53515 36020 ft 430 kts 305°
2026-04-29 21:50 34.18113 67.47845 36026 ft 431 kts 305°
2026-04-29 21:50 34.21828 67.42185 36022 ft 431 kts 305°
2026-04-29 21:51 34.25528 67.36535 36027 ft 431 kts 305°
2026-04-29 21:51 34.31110 67.27997 36044 ft 431 kts 305°
2026-04-29 21:52 34.34831 67.22295 36045 ft 432 kts 305°
2026-04-29 21:52 34.38556 67.16582 36042 ft 432 kts 305°
2026-04-29 21:53 34.42252 67.10894 36041 ft 433 kts 305°
2026-04-29 21:53 34.45974 67.05160 36058 ft 434 kts 305°
2026-04-29 21:54 34.49702 66.99410 36062 ft 433 kts 305°
2026-04-29 21:54 34.53412 66.93681 36040 ft 432 kts 305°
2026-04-29 21:55 34.57113 66.87952 36031 ft 432 kts 304°
2026-04-29 21:55 34.60781 66.82255 36049 ft 431 kts 304°
2026-04-29 21:56 34.64479 66.76501 36060 ft 433 kts 304°
2026-04-29 21:56 34.68176 66.70742 36069 ft 433 kts 304°
2026-04-29 21:57 34.71859 66.64995 36077 ft 434 kts 304°
2026-04-29 21:57 34.75576 66.59187 36096 ft 434 kts 304°
2026-04-29 21:58 34.79269 66.53409 36067 ft 431 kts 304°
2026-04-29 21:58 34.82950 66.47645 36051 ft 432 kts 304°
2026-04-29 21:59 34.86605 66.41900 36060 ft 433 kts 304°
2026-04-29 21:59 34.90290 66.36103 36077 ft 433 kts 304°
2026-04-29 22:00 34.93990 66.30274 36085 ft 434 kts 304°
2026-04-29 22:00 34.97673 66.24465 36095 ft 431 kts 304°
2026-04-29 22:01 35.01284 66.18694 36059 ft 431 kts 304°
2026-04-29 22:01 35.04922 66.12860 36059 ft 433 kts 304°
2026-04-29 22:02 35.08577 66.06997 36078 ft 435 kts 304°
2026-04-29 22:02 35.12243 66.01111 36086 ft 437 kts 304°
2026-04-29 22:03 35.15924 65.95190 36098 ft 438 kts 303°
2026-04-29 22:03 35.19579 65.89302 36111 ft 438 kts 303°
2026-04-29 22:04 35.23260 65.83360 36107 ft 438 kts 303°
2026-04-29 22:04 35.26940 65.77409 36094 ft 438 kts 303°
2026-04-29 22:05 35.30593 65.71493 36088 ft 439 kts 303°
2026-04-29 22:06 35.36097 65.62562 36070 ft 437 kts 303°
2026-04-29 22:06 35.39757 65.56610 36063 ft 437 kts 303°
2026-04-29 22:07 35.42796 65.51658 36054 ft 437 kts 303°
2026-04-29 22:07 35.47037 65.44741 36044 ft 436 kts 303°
2026-04-29 22:08 35.50683 65.38779 36023 ft 437 kts 303°
2026-04-29 22:08 35.53722 65.33804 36034 ft 439 kts 303°
2026-04-29 22:09 35.57982 65.26815 36041 ft 442 kts 303°
2026-04-29 22:09 35.61668 65.20759 36039 ft 442 kts 303°
2026-04-29 22:10 35.65349 65.14702 36024 ft 442 kts 303°
2026-04-29 22:10 35.68406 65.09662 36017 ft 442 kts 303°
2026-04-29 22:11 35.72682 65.02599 35991 ft 443 kts 303°
2026-04-29 22:11 35.75762 64.97504 35998 ft 443 kts 303°
2026-04-29 22:12 35.79405 64.91466 35980 ft 442 kts 303°
2026-04-29 22:12 35.83079 64.85368 35974 ft 443 kts 303°
2026-04-29 22:13 35.86750 64.79263 35959 ft 444 kts 303°
2026-04-29 22:13 35.90422 64.73146 35957 ft 445 kts 303°
2026-04-29 22:14 35.94081 64.67040 35947 ft 446 kts 303°
2026-04-29 22:14 35.97765 64.60881 35957 ft 447 kts 302°
2026-04-29 22:15 36.02058 64.53690 35958 ft 448 kts 302°
2026-04-29 22:15 36.05150 64.48501 35955 ft 448 kts 302°
2026-04-29 22:16 36.08817 64.42339 35954 ft 449 kts 302°
2026-04-29 22:16 36.12514 64.36113 35950 ft 449 kts 302°
2026-04-29 22:17 36.16208 64.29887 35942 ft 449 kts 302°
2026-04-29 22:17 36.19982 64.23725 35939 ft 450 kts 304°
2026-04-29 22:18 36.23819 64.17668 35935 ft 450 kts 304°
2026-04-29 22:18 36.27672 64.11542 35935 ft 451 kts 304°
2026-04-29 22:19 36.31514 64.05394 35932 ft 451 kts 304°
2026-04-29 22:19 36.35358 63.99226 35933 ft 452 kts 303°
2026-04-29 22:20 36.39175 63.93092 35929 ft 453 kts 303°
2026-04-29 22:20 36.43020 63.86901 35928 ft 453 kts 303°
2026-04-29 22:21 36.46868 63.80695 35926 ft 454 kts 303°
2026-04-29 22:21 36.50719 63.74472 35930 ft 454 kts 303°
2026-04-29 22:22 36.54542 63.68283 35925 ft 455 kts 303°
2026-04-29 22:22 36.58393 63.62038 35924 ft 455 kts 303°
2026-04-29 22:23 36.62244 63.55780 35919 ft 456 kts 303°
2026-04-29 22:23 36.66071 63.49551 35921 ft 456 kts 303°
2026-04-29 22:24 36.69919 63.43275 35917 ft 456 kts 303°
2026-04-29 22:24 36.73768 63.36986 35916 ft 456 kts 303°
2026-04-29 22:25 36.77619 63.30683 35914 ft 457 kts 303°
2026-04-29 22:25 36.81471 63.24365 35913 ft 458 kts 303°
2026-04-29 22:26 36.85300 63.18074 35911 ft 458 kts 303°
2026-04-29 22:26 36.89152 63.11733 35910 ft 459 kts 303°
2026-04-29 22:27 36.93010 63.05370 35913 ft 459 kts 303°
2026-04-29 22:27 36.96869 62.98994 35909 ft 460 kts 303°
2026-04-29 22:28 37.00700 62.92652 35909 ft 460 kts 303°
2026-04-29 22:28 37.04556 62.86255 35908 ft 461 kts 303°
2026-04-29 22:29 37.08409 62.79853 35905 ft 461 kts 303°
2026-04-29 22:29 37.12269 62.73426 35903 ft 462 kts 303°
2026-04-29 22:30 37.16131 62.66984 35903 ft 462 kts 303°
2026-04-29 22:30 37.19965 62.60576 35902 ft 462 kts 303°
2026-04-29 22:31 37.23824 62.54113 35902 ft 463 kts 303°
2026-04-29 22:31 37.27682 62.47640 35900 ft 463 kts 303°
2026-04-29 22:32 37.31514 62.41197 35900 ft 464 kts 303°
2026-04-29 22:32 37.35373 62.34697 35906 ft 464 kts 303°
2026-04-29 22:33 37.39232 62.28184 35911 ft 465 kts 302°
2026-04-29 22:33 37.43093 62.21656 35914 ft 465 kts 302°
2026-04-29 22:34 37.46947 62.15127 35909 ft 465 kts 302°
2026-04-29 22:34 37.50777 62.08625 35907 ft 466 kts 302°
2026-04-29 22:35 37.54637 62.02058 35911 ft 466 kts 302°
2026-04-29 22:35 37.58497 61.95481 35913 ft 467 kts 302°
2026-04-29 22:36 37.62221 61.88822 35932 ft 459 kts 297°
2026-04-29 22:36 37.63717 61.85389 35910 ft 448 kts 292°
2026-04-29 22:36 37.65086 61.81884 35913 ft 445 kts 293°
2026-04-29 22:37 37.67885 61.74895 35911 ft 447 kts 293°
2026-04-29 22:37 37.70693 61.67888 35906 ft 447 kts 293°
2026-04-29 22:38 37.73471 61.60917 35906 ft 447 kts 293°
2026-04-29 22:38 37.76260 61.53895 35906 ft 447 kts 293°
2026-04-29 22:39 37.79046 61.46864 35901 ft 448 kts 293°
2026-04-29 22:39 37.81835 61.39810 35920 ft 448 kts 292°
2026-04-29 22:40 37.84603 61.32794 35920 ft 449 kts 292°
2026-04-29 22:40 37.87383 61.25731 35918 ft 449 kts 292°
2026-04-29 22:41 37.90165 61.18647 35905 ft 449 kts 292°
2026-04-29 22:41 37.92942 61.11560 35912 ft 450 kts 292°
2026-04-29 22:42 37.95701 61.04503 35913 ft 450 kts 292°
2026-04-29 22:42 37.98474 60.97392 35917 ft 450 kts 292°
2026-04-29 22:43 38.01248 60.90265 35915 ft 450 kts 292°
2026-04-29 22:43 38.04014 60.83140 35917 ft 451 kts 292°
2026-04-29 22:44 38.06780 60.75998 35916 ft 451 kts 292°
2026-04-29 22:44 38.09522 60.68904 35918 ft 451 kts 292°
2026-04-29 22:45 38.12283 60.61743 35918 ft 451 kts 292°
2026-04-29 22:45 38.15036 60.54586 35918 ft 452 kts 292°
2026-04-29 22:46 38.17773 60.47454 35920 ft 452 kts 291°
2026-04-29 22:46 38.20522 60.40272 35922 ft 452 kts 291°
2026-04-29 22:47 38.23274 60.33069 35926 ft 453 kts 291°
2026-04-29 22:47 38.26019 60.25865 35930 ft 453 kts 291°
2026-04-29 22:48 38.28764 60.18645 35926 ft 453 kts 291°
2026-04-29 22:48 38.31488 60.11463 35931 ft 454 kts 291°
2026-04-29 22:49 38.34229 60.04220 35936 ft 454 kts 291°
2026-04-29 22:49 38.36929 59.97066 35940 ft 454 kts 291°
2026-04-29 22:50 38.39649 59.89842 35945 ft 455 kts 291°
2026-04-29 22:50 38.42380 59.82574 35946 ft 455 kts 291°
2026-04-29 22:51 38.45109 59.75292 35952 ft 455 kts 291°
2026-04-29 22:51 38.49190 59.64371 35945 ft 455 kts 291°
2026-04-29 22:52 38.51890 59.57123 35939 ft 455 kts 290°
2026-04-29 22:52 38.54600 59.49830 35949 ft 455 kts 290°
2026-04-29 22:53 38.57309 59.42526 35952 ft 455 kts 290°
2026-04-29 22:53 38.60021 59.35211 35951 ft 456 kts 291°
2026-04-29 22:54 38.62877 59.28018 35958 ft 457 kts 292°
2026-04-29 22:54 38.65796 59.20781 35956 ft 458 kts 292°
2026-04-29 22:55 38.68689 59.13521 35961 ft 459 kts 292°
2026-04-29 22:55 38.71578 59.06230 35970 ft 459 kts 292°
2026-04-29 22:56 38.74445 58.98975 35975 ft 460 kts 292°
2026-04-29 22:56 38.77331 58.91656 35976 ft 461 kts 292°
2026-04-29 22:57 38.80216 58.84322 35981 ft 461 kts 292°
2026-04-29 22:57 38.83096 58.76981 35989 ft 461 kts 291°
2026-04-29 22:58 38.85964 58.69654 36252 ft 463 kts 291°
2026-04-29 22:58 38.87402 58.65977 36784 ft 460 kts 291°
2026-04-29 22:58 38.88729 58.62309 37286 ft 455 kts 287°
2026-04-29 22:59 38.89829 58.58533 37762 ft 450 kts 284°
2026-04-29 22:59 38.90847 58.54724 37983 ft 454 kts 284°
2026-04-29 22:59 38.92917 58.47175 37995 ft 444 kts 284°
2026-04-29 23:00 38.94958 58.39698 37996 ft 447 kts 284°
2026-04-29 23:00 38.97009 58.32146 37997 ft 448 kts 284°
2026-04-29 23:01 38.99054 58.24589 37997 ft 448 kts 284°
2026-04-29 23:01 39.01096 58.17022 38004 ft 448 kts 284°
2026-04-29 23:02 39.03121 58.09499 38002 ft 448 kts 284°
2026-04-29 23:02 39.05152 58.01926 38005 ft 448 kts 284°
2026-04-29 23:03 39.07181 57.94338 38014 ft 448 kts 284°
2026-04-29 23:03 39.09209 57.86734 37998 ft 449 kts 284°
2026-04-29 23:04 39.11232 57.79123 38010 ft 450 kts 284°
2026-04-29 23:04 39.13238 57.71556 38006 ft 450 kts 284°
2026-04-29 23:05 39.15257 57.63913 38010 ft 451 kts 284°
2026-04-29 23:05 39.17274 57.56260 38024 ft 451 kts 284°
2026-04-29 23:06 39.19283 57.48610 38024 ft 451 kts 284°
2026-04-29 23:06 39.21278 57.40992 38028 ft 451 kts 284°
2026-04-29 23:07 39.23282 57.33312 38025 ft 452 kts 284°
2026-04-29 23:07 39.25281 57.25633 38030 ft 452 kts 283°
2026-04-29 23:08 39.27276 57.17941 38031 ft 452 kts 283°
2026-04-29 23:08 39.29257 57.10281 38030 ft 453 kts 283°
2026-04-29 23:09 39.31242 57.02581 38037 ft 453 kts 283°
2026-04-29 23:09 39.33230 56.94847 38038 ft 453 kts 283°
2026-04-29 23:10 39.35205 56.87137 38034 ft 453 kts 283°
2026-04-29 23:10 39.37173 56.79436 38030 ft 453 kts 283°
2026-04-29 23:11 39.38982 56.71653 38035 ft 452 kts 281°
2026-04-29 23:11 39.40746 56.63851 38038 ft 452 kts 281°
2026-04-29 23:12 39.42530 56.56041 38042 ft 453 kts 282°
2026-04-29 23:12 39.44303 56.48290 38044 ft 453 kts 281°
2026-04-29 23:13 39.46090 56.40455 38049 ft 453 kts 281°
2026-04-29 23:13 39.47867 56.32637 38049 ft 453 kts 281°
2026-04-29 23:14 39.49639 56.24786 38061 ft 455 kts 283°
2026-04-29 23:14 39.51406 56.16971 38068 ft 456 kts 283°
2026-04-29 23:15 39.53182 56.09082 38074 ft 456 kts 283°
2026-04-29 23:15 39.54949 56.01195 38072 ft 456 kts 283°
2026-04-29 23:16 39.56710 55.93312 38070 ft 455 kts 283°
2026-04-29 23:16 39.58454 55.85495 38067 ft 454 kts 283°
2026-04-29 23:17 39.60220 55.77643 38034 ft 454 kts 281°
2026-04-29 23:17 39.61975 55.69791 38024 ft 453 kts 281°
2026-04-29 23:18 39.63718 55.61946 38012 ft 452 kts 281°
2026-04-29 23:18 39.65446 55.54149 38009 ft 453 kts 281°
2026-04-29 23:19 39.67185 55.46278 38020 ft 455 kts 281°
2026-04-29 23:19 39.68926 55.38367 38037 ft 457 kts 281°
2026-04-29 23:20 39.70666 55.30425 38047 ft 458 kts 281°
2026-04-29 23:20 39.72402 55.22444 38061 ft 460 kts 281°
2026-04-29 23:21 39.74130 55.14477 38066 ft 462 kts 281°
2026-04-29 23:21 39.75866 55.06444 38067 ft 463 kts 281°
2026-04-29 23:22 39.77603 54.98378 38061 ft 463 kts 281°
2026-04-29 23:22 39.79335 54.90306 38061 ft 463 kts 281°
2026-04-29 23:23 39.81048 54.82291 38063 ft 463 kts 281°
2026-04-29 23:23 39.82769 54.74214 38062 ft 463 kts 281°
2026-04-29 23:24 39.84494 54.66142 38067 ft 463 kts 281°
2026-04-29 23:24 39.86216 54.58063 38068 ft 463 kts 280°
2026-04-29 23:25 39.87916 54.50047 38064 ft 462 kts 280°
2026-04-29 23:25 39.89619 54.41977 38063 ft 462 kts 280°
2026-04-29 23:26 39.91304 54.33902 38066 ft 462 kts 280°
2026-04-29 23:26 39.92990 54.25801 38075 ft 463 kts 280°
2026-04-29 23:27 39.94660 54.17751 38072 ft 464 kts 280°
2026-04-29 23:27 39.96334 54.09646 38077 ft 464 kts 280°
2026-04-29 23:28 39.98005 54.01527 38074 ft 464 kts 280°
2026-04-29 23:28 39.99672 53.93397 38081 ft 464 kts 280°
2026-04-29 23:29 40.01321 53.85319 38087 ft 464 kts 280°
2026-04-29 23:29 40.02976 53.77184 38071 ft 464 kts 279°
2026-04-29 23:30 40.04626 53.69036 38076 ft 464 kts 279°
2026-04-29 23:30 40.06271 53.60885 38079 ft 464 kts 279°
2026-04-29 23:31 40.07900 53.52783 38075 ft 464 kts 279°
2026-04-29 23:31 40.09530 53.44643 38074 ft 464 kts 279°
2026-04-29 23:32 40.11155 53.36490 38073 ft 464 kts 279°
2026-04-29 23:32 40.12774 53.28340 38076 ft 463 kts 279°
2026-04-29 23:33 40.14376 53.20244 38073 ft 463 kts 279°
2026-04-29 23:33 40.15981 53.12095 38077 ft 463 kts 279°
2026-04-29 23:34 40.17581 53.03941 38073 ft 463 kts 279°
2026-04-29 23:34 40.19176 52.95778 38075 ft 463 kts 279°
2026-04-29 23:35 40.20754 52.87674 38070 ft 463 kts 279°
2026-04-29 23:35 40.22338 52.79500 38072 ft 463 kts 279°
2026-04-29 23:36 40.23917 52.71323 38074 ft 464 kts 279°
2026-04-29 23:36 40.25492 52.63134 38069 ft 464 kts 279°
2026-04-29 23:37 40.27053 52.54996 38078 ft 464 kts 279°
2026-04-29 23:37 40.28621 52.46792 38078 ft 465 kts 279°
2026-04-29 23:38 40.30186 52.38578 38075 ft 465 kts 279°
2026-04-29 23:38 40.31747 52.30356 38084 ft 465 kts 279°
2026-04-29 23:39 40.33291 52.22183 38088 ft 465 kts 279°
2026-04-29 23:39 40.34840 52.13948 38085 ft 466 kts 279°
2026-04-29 23:40 40.36386 52.05697 38097 ft 466 kts 279°
2026-04-29 23:40 40.37926 51.97441 38093 ft 466 kts 279°
2026-04-29 23:41 40.39459 51.89186 38091 ft 466 kts 279°
2026-04-29 23:41 40.40977 51.80981 38085 ft 466 kts 279°
2026-04-29 23:42 40.42498 51.72722 38092 ft 466 kts 279°
2026-04-29 23:42 40.44014 51.64454 38091 ft 467 kts 279°
2026-04-29 23:43 40.45530 51.56149 38097 ft 467 kts 279°
2026-04-29 23:43 40.47033 51.47916 38099 ft 468 kts 280°
2026-04-29 23:44 40.48722 51.39647 38102 ft 469 kts 281°
2026-04-29 23:44 40.50436 51.31378 38106 ft 469 kts 281°
2026-04-29 23:45 40.52121 51.23103 38106 ft 469 kts 281°
2026-04-29 23:45 40.53785 51.14858 38114 ft 469 kts 281°
2026-04-29 23:46 40.55451 51.06565 38113 ft 469 kts 281°
2026-04-29 23:46 40.57112 50.98268 38112 ft 469 kts 281°
2026-04-29 23:47 40.58764 50.89977 38113 ft 469 kts 281°
2026-04-29 23:47 40.60401 50.81735 38111 ft 469 kts 281°
2026-04-29 23:48 40.62042 50.73436 38106 ft 469 kts 281°
2026-04-29 23:48 40.63676 50.65135 38104 ft 469 kts 281°
2026-04-29 23:49 40.65307 50.56819 38106 ft 469 kts 281°
2026-04-29 23:49 40.66918 50.48568 38100 ft 469 kts 281°
2026-04-29 23:50 40.68539 50.40235 38100 ft 469 kts 281°
2026-04-29 23:51 40.70952 50.27725 38104 ft 469 kts 281°
2026-04-29 23:51 40.72543 50.19440 38105 ft 470 kts 281°
2026-04-29 23:52 40.74139 50.11095 38107 ft 470 kts 281°
2026-04-29 23:52 40.75729 50.02743 38109 ft 470 kts 281°
2026-04-29 23:53 40.77316 49.94375 38116 ft 470 kts 281°
2026-04-29 23:53 40.78896 49.86005 38130 ft 470 kts 281°
2026-04-29 23:54 40.80459 49.77686 38122 ft 470 kts 281°
2026-04-29 23:54 40.82028 49.69305 38121 ft 470 kts 281°
2026-04-29 23:55 40.83587 49.60940 38134 ft 470 kts 281°
2026-04-29 23:55 40.85133 49.52604 38135 ft 470 kts 281°
2026-04-29 23:56 40.86682 49.44221 38135 ft 470 kts 281°
2026-04-29 23:56 40.88223 49.35844 38132 ft 469 kts 281°
2026-04-29 23:57 40.89705 49.27444 38132 ft 469 kts 279°
2026-04-29 23:57 40.91113 49.19034 38134 ft 468 kts 279°
2026-04-29 23:58 40.92516 49.10689 38132 ft 468 kts 279°
2026-04-29 23:58 40.93931 49.02276 38133 ft 469 kts 279°
2026-04-29 23:59 40.95340 48.93867 38135 ft 469 kts 279°
2026-04-29 23:59 40.96745 48.85437 38128 ft 469 kts 279°
2026-04-30 00:00 40.98133 48.77073 38137 ft 469 kts 279°
2026-04-30 00:00 40.99525 48.68643 38137 ft 469 kts 279°
2026-04-30 00:01 41.00912 48.60204 38132 ft 469 kts 279°
2026-04-30 00:01 41.02293 48.51759 38134 ft 469 kts 279°
2026-04-30 00:02 41.03654 48.43391 38115 ft 468 kts 279°
2026-04-30 00:02 41.05017 48.34979 38130 ft 467 kts 279°
2026-04-30 00:03 41.06373 48.26563 38097 ft 467 kts 279°
2026-04-30 00:03 41.07724 48.18130 38112 ft 468 kts 279°
2026-04-30 00:04 41.09060 48.09759 38093 ft 467 kts 279°
2026-04-30 00:04 41.10398 48.01337 38090 ft 467 kts 279°
2026-04-30 00:05 41.11729 47.92916 38079 ft 467 kts 279°
2026-04-30 00:05 41.13053 47.84495 38087 ft 467 kts 279°
2026-04-30 00:06 41.14366 47.76111 38086 ft 467 kts 278°
2026-04-30 00:06 41.15678 47.67680 38094 ft 467 kts 278°
2026-04-30 00:07 41.16985 47.59250 38107 ft 466 kts 278°
2026-04-30 00:07 41.18284 47.50811 38113 ft 466 kts 278°
2026-04-30 00:08 41.19568 47.42443 38122 ft 465 kts 278°
2026-04-30 00:08 41.20851 47.34029 38127 ft 465 kts 278°
2026-04-30 00:09 41.22126 47.25634 38135 ft 464 kts 278°
2026-04-30 00:09 41.23395 47.17227 38141 ft 463 kts 278°
2026-04-30 00:10 41.24653 47.08856 38151 ft 463 kts 278°
2026-04-30 00:10 41.25899 47.00514 38152 ft 462 kts 278°
2026-04-30 00:11 41.27145 46.92136 38159 ft 462 kts 278°
2026-04-30 00:11 41.28381 46.83770 38167 ft 461 kts 278°
2026-04-30 00:12 41.29612 46.75403 38173 ft 461 kts 278°
2026-04-30 00:12 41.30798 46.67082 38180 ft 460 kts 277°
2026-04-30 00:13 41.31963 46.58708 38180 ft 460 kts 277°
2026-04-30 00:13 41.33129 46.50334 38182 ft 461 kts 277°
2026-04-30 00:14 41.34285 46.41993 38163 ft 461 kts 277°
2026-04-30 00:14 41.35442 46.33603 38150 ft 461 kts 277°
2026-04-30 00:15 41.36592 46.25220 38145 ft 461 kts 277°
2026-04-30 00:15 41.37737 46.16816 38145 ft 461 kts 277°
2026-04-30 00:16 41.38867 46.08479 38144 ft 461 kts 277°
2026-04-30 00:16 41.40000 46.00076 38143 ft 461 kts 277°
2026-04-30 00:17 41.41128 45.91660 38139 ft 461 kts 277°
2026-04-30 00:17 41.42249 45.83248 38136 ft 461 kts 277°
2026-04-30 00:18 41.43365 45.74824 38132 ft 461 kts 277°
2026-04-30 00:18 41.44465 45.66465 38130 ft 461 kts 277°
2026-04-30 00:19 41.45568 45.58042 38128 ft 462 kts 277°
2026-04-30 00:19 41.46665 45.49618 38131 ft 462 kts 277°
2026-04-30 00:20 41.47759 45.41161 38127 ft 462 kts 277°
2026-04-30 00:20 41.48657 45.32757 38129 ft 460 kts 274°
2026-04-30 00:21 41.49346 45.24272 38140 ft 460 kts 274°
2026-04-30 00:21 41.50050 45.15774 38146 ft 460 kts 274°
2026-04-30 00:22 41.50739 45.07293 38154 ft 460 kts 274°
2026-04-30 00:22 41.51414 44.98867 38154 ft 459 kts 274°
2026-04-30 00:23 41.52087 44.90395 38154 ft 459 kts 274°
2026-04-30 00:23 41.52752 44.81930 38153 ft 459 kts 274°
2026-04-30 00:24 41.53411 44.73460 38154 ft 458 kts 274°
2026-04-30 00:24 41.54064 44.65003 38154 ft 458 kts 274°
2026-04-30 00:25 41.54704 44.56608 38158 ft 458 kts 274°
2026-04-30 00:25 41.55344 44.48149 38155 ft 458 kts 274°
2026-04-30 00:26 41.55977 44.39694 38150 ft 458 kts 274°
2026-04-30 00:26 41.56604 44.31224 38157 ft 458 kts 274°
2026-04-30 00:27 41.57223 44.22808 38156 ft 459 kts 274°
2026-04-30 00:27 41.57879 44.14333 38146 ft 459 kts 274°
2026-04-30 00:28 41.58551 44.05847 38143 ft 459 kts 274°
2026-04-30 00:28 41.59203 43.97439 38129 ft 458 kts 274°
2026-04-30 00:29 41.59848 43.89019 38136 ft 458 kts 274°
2026-04-30 00:29 41.60491 43.80524 38144 ft 457 kts 274°
2026-04-30 00:30 41.61124 43.72079 38137 ft 457 kts 274°
2026-04-30 00:30 41.61752 43.63636 38146 ft 457 kts 274°
2026-04-30 00:31 41.62367 43.55256 38139 ft 457 kts 274°
2026-04-30 00:31 41.62983 43.46811 38141 ft 457 kts 274°
2026-04-30 00:32 41.63595 43.38366 38151 ft 456 kts 274°
2026-04-30 00:32 41.64202 43.29919 38161 ft 456 kts 274°
2026-04-30 00:33 41.64802 43.21472 38160 ft 456 kts 274°
2026-04-30 00:33 41.65392 43.13084 38174 ft 456 kts 274°
2026-04-30 00:34 41.65977 43.04658 38169 ft 455 kts 274°
2026-04-30 00:34 41.66557 42.96224 38157 ft 455 kts 274°
2026-04-30 00:35 41.67043 42.87854 38171 ft 454 kts 270°
2026-04-30 00:35 41.66724 42.79443 38175 ft 453 kts 263°
2026-04-30 00:36 41.66017 42.71084 38174 ft 452 kts 264°
2026-04-30 00:36 41.65333 42.62742 38155 ft 451 kts 264°
2026-04-30 00:37 41.64638 42.54414 38155 ft 450 kts 264°
2026-04-30 00:37 41.63941 42.46165 38164 ft 449 kts 263°
2026-04-30 00:38 41.63233 42.37874 38165 ft 449 kts 263°
2026-04-30 00:38 41.62523 42.29610 38167 ft 448 kts 263°
2026-04-30 00:39 41.61807 42.21351 38169 ft 447 kts 263°
2026-04-30 00:39 41.61090 42.13168 38176 ft 446 kts 264°
2026-04-30 00:40 41.60363 42.04938 38183 ft 446 kts 263°
2026-04-30 00:40 41.59631 41.96714 38198 ft 446 kts 263°
2026-04-30 00:41 41.58894 41.88493 38202 ft 446 kts 264°
2026-04-30 00:41 41.58156 41.80333 38209 ft 445 kts 263°
2026-04-30 00:42 41.57408 41.72130 38218 ft 445 kts 263°
2026-04-30 00:42 41.56655 41.63930 38212 ft 445 kts 263°
2026-04-30 00:43 41.55895 41.55732 38215 ft 445 kts 263°
2026-04-30 00:43 41.55170 41.47598 38208 ft 444 kts 266°
2026-04-30 00:44 41.55199 41.39377 38208 ft 444 kts 274°
2026-04-30 00:44 41.55700 41.31159 38204 ft 443 kts 274°
2026-04-30 00:45 41.56166 41.22957 38202 ft 443 kts 274°
2026-04-30 00:45 41.56625 41.14804 38197 ft 443 kts 274°
2026-04-30 00:46 41.57082 41.06606 38195 ft 443 kts 274°
2026-04-30 00:46 41.57533 40.98408 38197 ft 442 kts 274°
2026-04-30 00:47 41.57978 40.90215 38198 ft 442 kts 274°
2026-04-30 00:47 41.58416 40.82040 38198 ft 441 kts 274°
2026-04-30 00:48 41.58846 40.73915 38196 ft 441 kts 274°
2026-04-30 00:48 41.59272 40.65752 38195 ft 440 kts 274°
2026-04-30 00:49 41.59692 40.57589 38191 ft 440 kts 274°
2026-04-30 00:49 41.60105 40.49435 38195 ft 439 kts 274°
2026-04-30 00:50 41.60510 40.41353 38190 ft 439 kts 273°
2026-04-30 00:50 41.60912 40.33212 38192 ft 439 kts 273°
2026-04-30 00:51 41.61307 40.25078 38188 ft 439 kts 273°
2026-04-30 00:51 41.61697 40.16952 38193 ft 438 kts 273°
2026-04-30 00:52 41.62078 40.08874 38191 ft 438 kts 273°
2026-04-30 00:52 41.62456 40.00748 38188 ft 438 kts 273°
2026-04-30 00:53 41.62829 39.92613 38189 ft 438 kts 273°
2026-04-30 00:53 41.63195 39.84478 38189 ft 438 kts 273°
2026-04-30 00:54 41.63556 39.76344 38191 ft 438 kts 273°
2026-04-30 00:54 41.63909 39.68265 38189 ft 438 kts 273°
2026-04-30 00:55 41.64259 39.60128 38190 ft 438 kts 273°
2026-04-30 00:55 41.64769 39.47930 38191 ft 438 kts 273°
2026-04-30 00:56 41.65104 39.39798 38191 ft 438 kts 273°
2026-04-30 00:56 41.65431 39.31723 38195 ft 437 kts 273°
2026-04-30 00:57 41.65753 39.23608 38193 ft 437 kts 273°
2026-04-30 00:57 41.66069 39.15497 38192 ft 436 kts 273°
2026-04-30 00:58 41.66379 39.07392 38182 ft 436 kts 273°
2026-04-30 00:58 41.66681 38.99355 38184 ft 436 kts 273°
2026-04-30 00:59 41.66979 38.91267 38187 ft 435 kts 273°
2026-04-30 00:59 41.67271 38.83186 38183 ft 435 kts 273°
2026-04-30 01:00 41.67557 38.75113 38183 ft 435 kts 272°
2026-04-30 01:00 41.67836 38.67096 38183 ft 434 kts 272°
2026-04-30 01:01 41.68110 38.59025 38177 ft 434 kts 272°
2026-04-30 01:01 41.68379 38.50966 38179 ft 434 kts 272°
2026-04-30 01:02 41.68641 38.42960 38184 ft 433 kts 272°
2026-04-30 01:02 41.68898 38.34908 38189 ft 433 kts 272°
2026-04-30 01:03 41.69149 38.26879 38185 ft 432 kts 272°
2026-04-30 01:03 41.69394 38.18849 38179 ft 432 kts 272°
2026-04-30 01:04 41.69634 38.10822 38177 ft 432 kts 272°
2026-04-30 01:04 41.69866 38.02856 38178 ft 431 kts 272°
2026-04-30 01:05 41.70094 37.94842 38170 ft 431 kts 272°
2026-04-30 01:05 41.70316 37.86827 38178 ft 431 kts 272°
2026-04-30 01:06 41.70533 37.78827 38176 ft 430 kts 272°
2026-04-30 01:06 41.70743 37.70890 38180 ft 430 kts 272°
2026-04-30 01:07 41.70949 37.62882 38179 ft 430 kts 272°
2026-04-30 01:07 41.71142 37.54894 38177 ft 430 kts 272°
2026-04-30 01:08 41.71337 37.46904 38179 ft 429 kts 272°
2026-04-30 01:08 41.71496 37.40268 38180 ft 429 kts 272°
2026-04-30 01:09 41.71709 37.30999 38176 ft 429 kts 272°
2026-04-30 01:09 41.71885 37.23020 38176 ft 428 kts 272°
2026-04-30 01:10 41.72027 37.16403 38175 ft 428 kts 272°
2026-04-30 01:10 41.72194 37.08436 38175 ft 428 kts 272°
2026-04-30 01:11 41.72380 36.99193 38170 ft 428 kts 272°
2026-04-30 01:11 41.72534 36.91243 38170 ft 427 kts 272°
2026-04-30 01:12 41.72658 36.84628 38167 ft 427 kts 272°
2026-04-30 01:12 41.72825 36.75344 38165 ft 427 kts 272°
2026-04-30 01:13 41.72940 36.68739 38170 ft 427 kts 272°
2026-04-30 01:13 41.73073 36.60786 38168 ft 427 kts 272°
2026-04-30 01:14 41.73200 36.52890 38170 ft 427 kts 272°
2026-04-30 01:14 41.73322 36.44940 38169 ft 427 kts 272°
2026-04-30 01:15 41.73438 36.36996 38167 ft 427 kts 271°
2026-04-30 01:15 41.73549 36.29035 38169 ft 427 kts 271°
2026-04-30 01:16 41.73654 36.21142 38165 ft 427 kts 271°
2026-04-30 01:16 41.73755 36.13179 38167 ft 427 kts 271°
2026-04-30 01:17 41.73849 36.05229 38165 ft 427 kts 271°
2026-04-30 01:17 41.73938 35.97276 38163 ft 428 kts 271°
2026-04-30 01:18 41.74022 35.89359 38160 ft 428 kts 271°
2026-04-30 01:18 41.74100 35.81401 38161 ft 428 kts 271°
2026-04-30 01:19 41.74173 35.73431 38163 ft 428 kts 271°
2026-04-30 01:19 41.74240 35.65465 38163 ft 428 kts 271°
2026-04-30 01:20 41.74302 35.57549 38164 ft 428 kts 271°
2026-04-30 01:20 41.74358 35.49580 38164 ft 428 kts 271°
2026-04-30 01:21 41.74409 35.41612 38165 ft 428 kts 271°
2026-04-30 01:21 41.74455 35.33624 38165 ft 428 kts 271°
2026-04-30 01:22 41.74495 35.25700 38169 ft 429 kts 271°
2026-04-30 01:22 41.74529 35.17727 38168 ft 428 kts 271°
2026-04-30 01:23 41.74558 35.09751 38176 ft 429 kts 271°
2026-04-30 01:23 41.74582 35.01757 38175 ft 429 kts 271°
2026-04-30 01:24 41.74599 34.93826 38177 ft 429 kts 271°
2026-04-30 01:24 41.74612 34.85833 38179 ft 430 kts 271°
2026-04-30 01:25 41.74619 34.77840 38179 ft 429 kts 271°
2026-04-30 01:25 41.74621 34.69837 38178 ft 430 kts 270°
2026-04-30 01:26 41.74791 34.61886 38178 ft 430 kts 276°
2026-04-30 01:26 41.75905 34.54037 38175 ft 430 kts 284°
2026-04-30 01:27 41.77695 34.46394 38176 ft 430 kts 286°
2026-04-30 01:27 41.79483 34.38745 38173 ft 430 kts 286°
2026-04-30 01:28 41.81253 34.31138 38171 ft 430 kts 286°
2026-04-30 01:28 41.83028 34.23496 38163 ft 429 kts 286°
2026-04-30 01:29 41.84798 34.15853 38168 ft 429 kts 286°
2026-04-30 01:29 41.86559 34.08222 38170 ft 429 kts 286°
2026-04-30 01:30 41.88305 34.00629 38167 ft 428 kts 286°
2026-04-30 01:30 41.90052 33.93006 38166 ft 427 kts 286°
2026-04-30 01:31 41.91771 33.85480 38169 ft 427 kts 286°
2026-04-30 01:31 41.93506 33.77859 38163 ft 427 kts 286°
2026-04-30 01:32 41.95223 33.70294 38154 ft 426 kts 286°
2026-04-30 01:32 41.96759 33.62619 38152 ft 425 kts 283°
2026-04-30 01:33 41.98198 33.54908 38152 ft 425 kts 283°
2026-04-30 01:33 41.99661 33.47213 38155 ft 425 kts 284°
2026-04-30 01:34 42.01132 33.39523 38149 ft 425 kts 284°
2026-04-30 01:34 42.02590 33.31873 38149 ft 425 kts 284°
2026-04-30 01:35 42.04051 33.24177 38151 ft 425 kts 283°
2026-04-30 01:35 42.05507 33.16471 38153 ft 425 kts 283°
2026-04-30 01:36 42.06957 33.08769 38148 ft 425 kts 283°
2026-04-30 01:36 42.08468 33.01138 38150 ft 425 kts 285°
2026-04-30 01:37 42.10061 32.93491 38150 ft 425 kts 285°
2026-04-30 01:37 42.11635 32.85821 38144 ft 424 kts 284°
2026-04-30 01:38 42.13191 32.78163 38144 ft 424 kts 284°
2026-04-30 01:38 42.14733 32.70539 38147 ft 424 kts 284°
2026-04-30 01:39 42.16279 32.62872 38147 ft 424 kts 284°
2026-04-30 01:39 42.17815 32.55214 38145 ft 423 kts 284°
2026-04-30 01:40 42.19337 32.47589 38147 ft 423 kts 284°
2026-04-30 01:40 42.20860 32.39931 38144 ft 423 kts 284°
2026-04-30 01:41 42.22374 32.32289 38142 ft 423 kts 284°
2026-04-30 01:41 42.23891 32.24608 38146 ft 422 kts 284°
2026-04-30 01:42 42.25387 32.16994 38147 ft 422 kts 284°
2026-04-30 01:42 42.26879 32.09335 38146 ft 422 kts 284°
2026-04-30 01:43 42.28377 32.01681 38146 ft 422 kts 284°
2026-04-30 01:43 42.29870 31.94029 38147 ft 422 kts 284°
2026-04-30 01:44 42.31359 31.86364 38146 ft 421 kts 284°
2026-04-30 01:44 42.32830 31.78755 38145 ft 421 kts 284°
2026-04-30 01:45 42.34305 31.71095 38146 ft 421 kts 284°
2026-04-30 01:45 42.35777 31.63425 38148 ft 421 kts 283°
2026-04-30 01:46 42.37242 31.55761 38148 ft 421 kts 283°
2026-04-30 01:46 42.38692 31.48138 38146 ft 421 kts 283°
2026-04-30 01:47 42.40148 31.40464 38150 ft 421 kts 283°
2026-04-30 01:47 42.41601 31.32770 38151 ft 422 kts 283°
2026-04-30 01:48 42.43046 31.25083 38148 ft 422 kts 283°
2026-04-30 01:48 42.44479 31.17435 38150 ft 422 kts 283°
2026-04-30 01:49 42.45915 31.09741 38155 ft 422 kts 283°
2026-04-30 01:49 42.47339 31.02064 38155 ft 422 kts 283°
2026-04-30 01:50 42.48765 30.94346 38162 ft 423 kts 283°
2026-04-30 01:50 42.50178 30.86662 38160 ft 423 kts 283°
2026-04-30 01:51 42.51595 30.78932 38163 ft 423 kts 283°
2026-04-30 01:51 42.53007 30.71194 38157 ft 423 kts 283°
2026-04-30 01:52 42.54413 30.63462 38161 ft 423 kts 283°
2026-04-30 01:52 42.55805 30.55769 38161 ft 422 kts 283°
2026-04-30 01:53 42.57200 30.48031 38161 ft 422 kts 283°
2026-04-30 01:53 42.58589 30.40292 38161 ft 422 kts 283°
2026-04-30 01:54 42.60048 30.32576 38162 ft 422 kts 287°
2026-04-30 01:54 42.62324 30.25269 38161 ft 425 kts 295°
2026-04-30 01:55 42.65556 30.18519 38165 ft 429 kts 304°
2026-04-30 01:55 42.69214 30.12109 38160 ft 429 kts 303°
2026-04-30 01:56 42.72850 30.05672 38166 ft 429 kts 303°
2026-04-30 01:56 42.76462 29.99274 38168 ft 429 kts 303°
2026-04-30 01:57 42.80097 29.92823 38167 ft 430 kts 303°
2026-04-30 01:57 42.83737 29.86350 38163 ft 430 kts 303°
2026-04-30 01:58 42.87372 29.79871 38165 ft 431 kts 303°
2026-04-30 01:58 42.90985 29.73418 38168 ft 431 kts 303°
2026-04-30 01:59 42.96439 29.63650 38174 ft 432 kts 303°
2026-04-30 02:00 43.00074 29.57122 38171 ft 432 kts 303°
2026-04-30 02:00 43.03709 29.50580 38177 ft 432 kts 303°
2026-04-30 02:01 43.07318 29.44068 38177 ft 432 kts 303°
2026-04-30 02:01 43.10950 29.37503 38183 ft 433 kts 303°
2026-04-30 02:02 43.14570 29.30944 38185 ft 432 kts 303°
2026-04-30 02:02 43.18190 29.24371 38185 ft 432 kts 303°
2026-04-30 02:03 43.21775 29.17846 38191 ft 431 kts 303°
2026-04-30 02:03 43.25374 29.11283 38190 ft 430 kts 303°
2026-04-30 02:04 43.28960 29.04727 38178 ft 430 kts 303°
2026-04-30 02:04 43.32543 28.98163 38179 ft 429 kts 303°
2026-04-30 02:05 43.36117 28.91599 38186 ft 429 kts 303°
2026-04-30 02:05 43.39659 28.85082 38190 ft 428 kts 303°
2026-04-30 02:06 43.43218 28.78518 38190 ft 428 kts 303°
2026-04-30 02:06 43.46776 28.71939 38186 ft 428 kts 303°
2026-04-30 02:07 43.50335 28.65346 38187 ft 429 kts 303°
2026-04-30 02:07 43.53862 28.58796 38196 ft 429 kts 302°
2026-04-30 02:08 43.57421 28.52174 38187 ft 430 kts 302°
2026-04-30 02:08 43.60983 28.45530 38187 ft 431 kts 302°
2026-04-30 02:09 43.64546 28.38868 38177 ft 432 kts 302°
2026-04-30 02:09 43.68091 28.32226 38178 ft 433 kts 302°
2026-04-30 02:10 43.71663 28.25518 38174 ft 434 kts 302°
2026-04-30 02:10 43.75238 28.18788 38174 ft 435 kts 302°
2026-04-30 02:11 43.78817 28.12037 38174 ft 435 kts 302°
2026-04-30 02:11 43.82371 28.05316 38175 ft 436 kts 302°
2026-04-30 02:12 43.85954 27.98525 38180 ft 437 kts 302°
2026-04-30 02:12 43.89533 27.91727 38181 ft 437 kts 302°
2026-04-30 02:13 43.93116 27.84904 38183 ft 438 kts 302°
2026-04-30 02:13 43.96671 27.78119 38191 ft 438 kts 302°
2026-04-30 02:14 44.00249 27.71274 38188 ft 438 kts 302°
2026-04-30 02:14 44.03827 27.64413 38189 ft 438 kts 302°
2026-04-30 02:15 44.07402 27.57543 38190 ft 438 kts 302°
2026-04-30 02:15 44.10947 27.50713 38187 ft 438 kts 302°
2026-04-30 02:16 44.14513 27.43825 38172 ft 438 kts 302°
2026-04-30 02:16 44.18072 27.36936 38176 ft 438 kts 302°
2026-04-30 02:17 44.21627 27.30039 38175 ft 438 kts 302°
2026-04-30 02:17 44.25153 27.23180 38190 ft 438 kts 302°
2026-04-30 02:18 44.28696 27.16273 38193 ft 438 kts 302°
2026-04-30 02:18 44.32236 27.09356 38198 ft 438 kts 302°
2026-04-30 02:19 44.35768 27.02437 38203 ft 437 kts 302°
2026-04-30 02:19 44.39273 26.95555 38202 ft 437 kts 302°
2026-04-30 02:20 44.42795 26.88624 38203 ft 437 kts 302°
2026-04-30 02:20 44.46316 26.81677 38209 ft 437 kts 302°
2026-04-30 02:21 44.49829 26.74729 38209 ft 437 kts 302°
2026-04-30 02:21 44.53340 26.67771 38205 ft 437 kts 302°
2026-04-30 02:22 44.56252 26.61993 38205 ft 437 kts 302°
2026-04-30 02:23 44.59118 26.55538 38210 ft 435 kts 296°
2026-04-30 02:23 44.61686 26.47877 38222 ft 433 kts 290°
2026-04-30 02:24 44.64041 26.40085 38231 ft 434 kts 291°
2026-04-30 02:24 44.66397 26.32335 38234 ft 434 kts 291°
2026-04-30 02:25 44.68752 26.24511 38238 ft 435 kts 291°
2026-04-30 02:25 44.71099 26.16673 38230 ft 435 kts 291°
2026-04-30 02:26 44.73440 26.08827 38231 ft 436 kts 291°
2026-04-30 02:26 44.75765 26.01013 38229 ft 436 kts 291°
2026-04-30 02:27 44.78096 25.93154 38224 ft 436 kts 291°
2026-04-30 02:27 44.80425 25.85279 38226 ft 435 kts 291°
2026-04-30 02:28 44.82746 25.77406 38223 ft 435 kts 291°
2026-04-30 02:28 44.85064 25.69516 38215 ft 435 kts 291°
2026-04-30 02:29 44.87358 25.61684 38215 ft 435 kts 291°
2026-04-30 02:29 44.89663 25.53789 38209 ft 436 kts 291°
2026-04-30 02:30 44.91965 25.45881 38207 ft 436 kts 291°
2026-04-30 02:30 44.94265 25.37954 38203 ft 436 kts 291°
2026-04-30 02:31 44.96542 25.30081 38205 ft 437 kts 290°
2026-04-30 02:31 44.98836 25.22122 38202 ft 437 kts 290°
2026-04-30 02:32 45.01125 25.14158 38206 ft 438 kts 290°
2026-04-30 02:32 45.03411 25.06177 38210 ft 438 kts 290°
2026-04-30 02:33 45.05681 24.98227 38204 ft 439 kts 290°
2026-04-30 02:33 45.07959 24.90231 38204 ft 439 kts 290°
2026-04-30 02:34 45.10228 24.82198 38203 ft 439 kts 290°
2026-04-30 02:34 45.12491 24.74156 38204 ft 440 kts 290°
2026-04-30 02:35 45.14753 24.66111 38205 ft 440 kts 290°
2026-04-30 02:35 45.16997 24.58099 38205 ft 440 kts 290°
2026-04-30 02:36 45.19251 24.50021 38208 ft 441 kts 290°
2026-04-30 02:36 45.21497 24.41943 38202 ft 441 kts 290°
2026-04-30 02:37 45.23741 24.33845 38205 ft 441 kts 290°
2026-04-30 02:37 45.25979 24.25747 38204 ft 441 kts 290°
2026-04-30 02:38 45.28198 24.17686 38198 ft 442 kts 290°
2026-04-30 02:38 45.30430 24.09554 38201 ft 442 kts 290°
2026-04-30 02:39 45.32658 24.01403 38210 ft 443 kts 290°
2026-04-30 02:39 45.34884 23.93239 38214 ft 443 kts 290°
2026-04-30 02:40 45.37090 23.85115 38214 ft 444 kts 290°
2026-04-30 02:40 45.39311 23.76912 38214 ft 445 kts 290°
2026-04-30 02:41 45.41531 23.68681 38218 ft 445 kts 290°
2026-04-30 02:41 45.43746 23.60442 38220 ft 446 kts 290°
2026-04-30 02:42 45.45945 23.52236 38219 ft 447 kts 290°
2026-04-30 02:42 45.48154 23.43962 38214 ft 447 kts 290°
2026-04-30 02:43 45.50359 23.35674 38222 ft 448 kts 290°
2026-04-30 02:43 45.52565 23.27354 38218 ft 448 kts 290°
2026-04-30 02:44 45.54763 23.19033 38228 ft 449 kts 290°
2026-04-30 02:44 45.56950 23.10727 38227 ft 450 kts 290°
2026-04-30 02:45 45.59143 23.02366 38229 ft 451 kts 290°
2026-04-30 02:45 45.61337 22.93971 38236 ft 451 kts 290°
2026-04-30 02:46 45.63525 22.85571 38241 ft 451 kts 290°
2026-04-30 02:46 45.65691 22.77226 38239 ft 451 kts 290°
2026-04-30 02:47 45.67867 22.68813 38238 ft 451 kts 290°
2026-04-30 02:47 45.70035 22.60398 38235 ft 451 kts 290°
2026-04-30 02:48 45.72199 22.51967 38238 ft 451 kts 290°
2026-04-30 02:48 45.74341 22.43590 38236 ft 452 kts 290°
2026-04-30 02:49 45.76496 22.35137 38234 ft 452 kts 290°
2026-04-30 02:49 45.78646 22.26669 38236 ft 452 kts 290°
2026-04-30 02:50 45.80790 22.18195 38239 ft 453 kts 290°
2026-04-30 02:50 45.82932 22.09713 38234 ft 453 kts 290°
2026-04-30 02:51 45.85311 22.01418 38233 ft 453 kts 294°
2026-04-30 02:51 45.87925 21.93190 38232 ft 453 kts 294°
2026-04-30 02:52 45.90483 21.84920 38237 ft 454 kts 294°
2026-04-30 02:52 45.92859 21.76540 38239 ft 454 kts 288°
2026-04-30 02:53 45.94787 21.67951 38242 ft 455 kts 288°
2026-04-30 02:53 45.96758 21.59297 38246 ft 456 kts 289°
2026-04-30 02:54 45.98719 21.50630 38246 ft 456 kts 288°
2026-04-30 02:54 46.00670 21.41952 38246 ft 457 kts 288°
2026-04-30 02:55 46.02604 21.33315 38261 ft 457 kts 288°
2026-04-30 02:55 46.04548 21.24598 38266 ft 457 kts 288°
2026-04-30 02:56 46.06484 21.15880 38266 ft 458 kts 288°
2026-04-30 02:56 46.08419 21.07133 38266 ft 458 kts 288°
2026-04-30 02:57 46.10332 20.98449 38271 ft 458 kts 288°
2026-04-30 02:57 46.12252 20.89691 38276 ft 458 kts 288°
2026-04-30 02:58 46.14165 20.80937 38283 ft 458 kts 288°
2026-04-30 02:58 46.16071 20.72172 38295 ft 458 kts 288°
2026-04-30 02:59 46.18084 20.63526 38292 ft 458 kts 290°
2026-04-30 02:59 46.20265 20.54887 38292 ft 458 kts 290°
2026-04-30 03:00 46.22418 20.46231 38301 ft 458 kts 290°
2026-04-30 03:00 46.24545 20.37560 38303 ft 459 kts 290°
2026-04-30 03:01 46.26647 20.28934 38310 ft 459 kts 290°
2026-04-30 03:01 46.28766 20.20203 38313 ft 459 kts 290°
2026-04-30 03:02 46.30875 20.11479 38321 ft 460 kts 290°
2026-04-30 03:02 46.32981 20.02736 38323 ft 460 kts 290°
2026-04-30 03:03 46.35067 19.94041 38328 ft 461 kts 290°
2026-04-30 03:03 46.38207 19.80887 38330 ft 461 kts 290°
2026-04-30 03:04 46.40295 19.72093 38338 ft 462 kts 290°
2026-04-30 03:04 46.42365 19.63344 38339 ft 462 kts 290°
2026-04-30 03:05 46.44438 19.54548 38347 ft 462 kts 290°
2026-04-30 03:05 46.46505 19.45742 38345 ft 462 kts 290°
2026-04-30 03:06 46.48571 19.36902 38345 ft 462 kts 290°
2026-04-30 03:06 46.50623 19.28085 38343 ft 462 kts 290°
2026-04-30 03:07 46.52658 19.19308 38344 ft 462 kts 290°
2026-04-30 03:07 46.54699 19.10470 38349 ft 462 kts 290°
2026-04-30 03:08 46.56734 19.01621 38351 ft 462 kts 290°
2026-04-30 03:08 46.58763 18.92763 38352 ft 462 kts 290°
2026-04-30 03:09 46.60774 18.83946 38351 ft 462 kts 290°
2026-04-30 03:09 46.62791 18.75064 38356 ft 463 kts 290°
2026-04-30 03:10 46.64804 18.66166 38359 ft 463 kts 290°
2026-04-30 03:10 46.66811 18.57256 38358 ft 464 kts 290°
2026-04-30 03:11 46.68799 18.48393 38352 ft 464 kts 290°
2026-04-30 03:11 46.70799 18.39438 38352 ft 465 kts 290°
2026-04-30 03:12 46.72792 18.30479 38363 ft 465 kts 290°
2026-04-30 03:12 46.74778 18.21513 38365 ft 465 kts 290°
2026-04-30 03:13 46.76745 18.12596 38366 ft 465 kts 290°
2026-04-30 03:13 46.78721 18.03593 38367 ft 465 kts 290°
2026-04-30 03:14 46.80688 17.94598 38367 ft 466 kts 290°
2026-04-30 03:14 46.82648 17.85596 38368 ft 466 kts 290°
2026-04-30 03:15 46.84605 17.76568 38369 ft 466 kts 290°
2026-04-30 03:15 46.86539 17.67606 38366 ft 466 kts 290°
2026-04-30 03:16 46.88482 17.58567 38367 ft 466 kts 290°
2026-04-30 03:16 46.90415 17.49531 38375 ft 466 kts 290°
2026-04-30 03:17 46.92331 17.40535 38376 ft 466 kts 290°
2026-04-30 03:17 46.94250 17.31488 38379 ft 466 kts 290°
2026-04-30 03:18 46.96165 17.22418 38380 ft 466 kts 289°
2026-04-30 03:18 46.98071 17.13349 38388 ft 466 kts 289°
2026-04-30 03:19 46.99947 17.04386 38392 ft 466 kts 289°
2026-04-30 03:19 47.01828 16.95357 38395 ft 466 kts 289°
2026-04-30 03:20 47.03713 16.86266 38405 ft 466 kts 289°
2026-04-30 03:20 47.05594 16.77156 38413 ft 466 kts 289°
2026-04-30 03:21 47.07464 16.68055 38412 ft 467 kts 289°
2026-04-30 03:21 47.09319 16.58988 38401 ft 467 kts 289°
2026-04-30 03:22 47.11180 16.49856 38404 ft 467 kts 289°
2026-04-30 03:22 47.13037 16.40719 38408 ft 467 kts 289°
2026-04-30 03:23 47.15106 16.31704 38410 ft 465 kts 296°
2026-04-30 03:23 47.17685 16.23058 38406 ft 465 kts 296°
2026-04-30 03:24 47.20280 16.14331 38406 ft 466 kts 296°
2026-04-30 03:24 47.22857 16.05573 38416 ft 467 kts 295°
2026-04-30 03:25 47.25409 15.96849 38420 ft 468 kts 295°
2026-04-30 03:25 47.27978 15.88031 38423 ft 469 kts 295°
2026-04-30 03:26 47.30535 15.79226 38428 ft 469 kts 295°
2026-04-30 03:26 47.33109 15.70329 38427 ft 471 kts 295°
2026-04-30 03:27 47.35654 15.61499 38428 ft 471 kts 295°
2026-04-30 03:27 47.38164 15.52761 38425 ft 472 kts 295°
2026-04-30 03:28 47.40721 15.43825 38423 ft 472 kts 295°
2026-04-30 03:28 47.43271 15.34881 38421 ft 473 kts 295°
2026-04-30 03:29 47.45825 15.25893 38417 ft 474 kts 295°
2026-04-30 03:29 47.48355 15.16955 38410 ft 475 kts 295°
2026-04-30 03:30 47.50901 15.07926 38407 ft 477 kts 295°
2026-04-30 03:30 47.53446 14.98864 38411 ft 477 kts 295°
2026-04-30 03:31 47.54716 14.94330 38250 ft 474 kts 295°
2026-04-30 03:31 47.55968 14.89847 37799 ft 471 kts 295°
2026-04-30 03:31 47.57183 14.85490 37290 ft 470 kts 295°
2026-04-30 03:31 47.58424 14.81032 36793 ft 468 kts 295°
2026-04-30 03:32 47.59662 14.76579 36280 ft 467 kts 296°
2026-04-30 03:32 47.60894 14.72141 35799 ft 466 kts 296°
2026-04-30 03:32 47.61888 14.68551 35417 ft 463 kts 296°
2026-04-30 03:32 47.63132 14.64048 34921 ft 459 kts 296°
2026-04-30 03:33 47.64336 14.59683 34453 ft 455 kts 297°
2026-04-30 03:33 47.65521 14.55379 33910 ft 450 kts 297°
2026-04-30 03:33 47.66684 14.51153 33373 ft 446 kts 297°
2026-04-30 03:33 47.67851 14.46906 32839 ft 444 kts 297°
2026-04-30 03:34 47.69015 14.42666 32315 ft 443 kts 297°
2026-04-30 03:34 47.70172 14.38442 31803 ft 443 kts 297°
2026-04-30 03:34 47.71330 14.34204 31282 ft 442 kts 297°
2026-04-30 03:34 47.72482 14.29983 30806 ft 441 kts 297°
2026-04-30 03:35 47.73634 14.25750 30271 ft 440 kts 297°
2026-04-30 03:35 47.74770 14.21567 29699 ft 438 kts 297°
2026-04-30 03:35 47.75910 14.17360 29129 ft 435 kts 297°
2026-04-30 03:35 47.77017 14.13266 28565 ft 430 kts 297°
2026-04-30 03:36 47.78126 14.09159 28030 ft 426 kts 297°
2026-04-30 03:36 47.79224 14.05090 27488 ft 422 kts 297°
2026-04-30 03:36 47.80304 14.01077 26963 ft 417 kts 297°
2026-04-30 03:36 47.81376 13.97080 26455 ft 414 kts 297°
2026-04-30 03:37 47.82439 13.93124 25943 ft 411 kts 297°
2026-04-30 03:37 47.83494 13.89191 25453 ft 407 kts 297°
2026-04-30 03:37 47.84540 13.85279 24955 ft 404 kts 297°
2026-04-30 03:37 47.85574 13.81404 24484 ft 401 kts 297°
2026-04-30 03:38 47.86583 13.77620 24004 ft 398 kts 297°
2026-04-30 03:38 47.87603 13.73791 23468 ft 395 kts 297°
2026-04-30 03:38 47.88610 13.70005 22911 ft 392 kts 297°
2026-04-30 03:38 47.89608 13.66244 22369 ft 388 kts 297°
2026-04-30 03:39 47.90597 13.62513 21836 ft 386 kts 296°
2026-04-30 03:39 47.91575 13.58812 21316 ft 382 kts 296°
2026-04-30 03:39 47.92543 13.55144 20804 ft 379 kts 296°
2026-04-30 03:39 47.93505 13.51496 20306 ft 377 kts 296°
2026-04-30 03:40 47.94445 13.47923 19817 ft 374 kts 296°
2026-04-30 03:40 47.95391 13.44326 19333 ft 371 kts 296°
2026-04-30 03:40 47.96324 13.40769 18842 ft 368 kts 296°
2026-04-30 03:40 47.97255 13.37217 18338 ft 366 kts 296°
2026-04-30 03:41 47.98180 13.33682 17772 ft 363 kts 295°
2026-04-30 03:41 47.99094 13.30187 17243 ft 361 kts 295°
2026-04-30 03:41 47.99999 13.26717 16825 ft 357 kts 295°
2026-04-30 03:41 48.00896 13.23271 16551 ft 356 kts 295°
2026-04-30 03:42 48.01780 13.19873 16291 ft 355 kts 295°
2026-04-30 03:42 48.02660 13.16481 16042 ft 346 kts 295°
2026-04-30 03:42 48.03517 13.13168 15778 ft 337 kts 295°
2026-04-30 03:42 48.04352 13.09937 15517 ft 329 kts 294°
2026-04-30 03:43 48.05167 13.06779 15262 ft 322 kts 294°
2026-04-30 03:43 48.05964 13.03697 15025 ft 316 kts 294°
2026-04-30 03:43 48.06741 13.00691 14790 ft 312 kts 294°
2026-04-30 03:43 48.07534 12.97623 14540 ft 311 kts 294°
2026-04-30 03:44 48.08258 12.94818 14320 ft 310 kts 294°
2026-04-30 03:44 48.08987 12.91784 14062 ft 310 kts 288°
2026-04-30 03:44 48.09424 12.88629 13795 ft 311 kts 279°
2026-04-30 03:44 48.09691 12.85426 13528 ft 310 kts 280°
2026-04-30 03:45 48.09988 12.82238 13369 ft 308 kts 280°
2026-04-30 03:45 48.10294 12.79068 13372 ft 309 kts 280°
2026-04-30 03:45 48.10594 12.75939 13370 ft 310 kts 280°
2026-04-30 03:45 48.10903 12.72690 13374 ft 311 kts 280°
2026-04-30 03:46 48.11200 12.69529 13372 ft 310 kts 280°
2026-04-30 03:46 48.11500 12.66332 13370 ft 311 kts 280°
2026-04-30 03:46 48.11799 12.63125 13368 ft 311 kts 280°
2026-04-30 03:46 48.12096 12.59927 13374 ft 311 kts 280°
2026-04-30 03:47 48.12394 12.56705 13373 ft 311 kts 279°
2026-04-30 03:47 48.12689 12.53504 13373 ft 311 kts 279°
2026-04-30 03:47 48.12986 12.50291 13307 ft 312 kts 279°
2026-04-30 03:47 48.13283 12.47055 12958 ft 315 kts 279°
2026-04-30 03:48 48.13577 12.43846 12571 ft 314 kts 279°
2026-04-30 03:48 48.13871 12.40615 12188 ft 313 kts 279°
2026-04-30 03:48 48.14163 12.37395 11809 ft 312 kts 279°
2026-04-30 03:48 48.14455 12.34177 11440 ft 311 kts 279°
2026-04-30 03:49 48.14713 12.30962 11064 ft 311 kts 277°
2026-04-30 03:49 48.14930 12.27767 10808 ft 306 kts 276°
2026-04-30 03:49 48.15136 12.24617 10567 ft 302 kts 276°
2026-04-30 03:49 48.15342 12.21517 10324 ft 296 kts 276°
2026-04-30 03:50 48.15545 12.18525 10066 ft 291 kts 276°
2026-04-30 03:50 48.15749 12.15538 9797 ft 286 kts 276°
2026-04-30 03:50 48.15952 12.12594 9527 ft 282 kts 276°
2026-04-30 03:50 48.16151 12.09695 9274 ft 278 kts 276°
2026-04-30 03:51 48.16347 12.06836 8998 ft 274 kts 276°
2026-04-30 03:51 48.16539 12.04017 8742 ft 271 kts 276°
2026-04-30 03:51 48.16730 12.01212 8422 ft 270 kts 276°
2026-04-30 03:51 48.16918 11.98446 8053 ft 272 kts 276°
2026-04-30 03:52 48.17108 11.95626 7663 ft 273 kts 276°
2026-04-30 03:52 48.17299 11.92795 7298 ft 274 kts 276°
2026-04-30 03:52 48.17489 11.89952 6936 ft 274 kts 276°
2026-04-30 03:52 48.17679 11.87106 6556 ft 275 kts 276°
2026-04-30 03:53 48.17868 11.84277 6282 ft 271 kts 276°
2026-04-30 03:53 48.18053 11.81489 6021 ft 267 kts 276°
2026-04-30 03:53 48.18036 11.78775 5764 ft 263 kts 258°
2026-04-30 03:53 48.17579 11.76151 5510 ft 259 kts 252°
2026-04-30 03:54 48.17110 11.73566 5256 ft 257 kts 255°
2026-04-30 03:54 48.16748 11.70963 5036 ft 253 kts 259°
2026-04-30 03:54 48.16487 11.68381 4988 ft 249 kts 261°
2026-04-30 03:54 48.16280 11.65817 4993 ft 248 kts 263°
2026-04-30 03:55 48.16098 11.63241 4994 ft 249 kts 263°
2026-04-30 03:55 48.15920 11.60668 4989 ft 249 kts 263°
2026-04-30 03:55 48.15741 11.58107 4960 ft 250 kts 263°
2026-04-30 03:55 48.15561 11.55532 4965 ft 248 kts 263°
2026-04-30 03:56 48.15522 11.52963 4945 ft 249 kts 281°
2026-04-30 03:56 48.16229 11.50662 4954 ft 239 kts 313°
2026-04-30 03:56 48.17462 11.49176 4955 ft 219 kts 333°
2026-04-30 03:56 48.18728 11.48104 4956 ft 197 kts 334°
2026-04-30 03:57 48.19890 11.47103 4953 ft 191 kts 334°
2026-04-30 03:57 48.21039 11.46110 4958 ft 191 kts 334°
2026-04-30 03:57 48.22173 11.45131 4985 ft 190 kts 334°
2026-04-30 03:57 48.23318 11.44144 4954 ft 190 kts 334°
2026-04-30 03:58 48.24469 11.43156 4958 ft 190 kts 334°
2026-04-30 03:58 48.25671 11.42415 4952 ft 184 kts 359°
2026-04-30 03:58 48.26896 11.42735 4969 ft 178 kts 24°
2026-04-30 03:58 48.28062 11.43353 4961 ft 178 kts 24°
2026-04-30 03:59 48.29233 11.43954 4987 ft 177 kts 24°
2026-04-30 03:59 48.30398 11.44556 4992 ft 177 kts 25°
2026-04-30 03:59 48.31392 11.45507 4989 ft 170 kts 54°
2026-04-30 03:59 48.31901 11.47071 4990 ft 166 kts 76°
2026-04-30 04:00 48.32103 11.48773 4992 ft 165 kts 85°
2026-04-30 04:00 48.32210 11.50492 4881 ft 165 kts 85°
2026-04-30 04:00 48.32341 11.52188 4657 ft 162 kts 85°
2026-04-30 04:00 48.32463 11.53855 4430 ft 159 kts 85°
2026-04-30 04:01 48.32587 11.55507 4221 ft 157 kts 85°
2026-04-30 04:01 48.32707 11.57119 4003 ft 154 kts 86°
2026-04-30 04:01 48.32786 11.58172 3877 ft 153 kts 86°
2026-04-30 04:01 48.32943 11.60253 3603 ft 148 kts 86°
2026-04-30 04:02 48.33055 11.61695 3402 ft 130 kts 86°
2026-04-30 04:02 48.33150 11.63002 3226 ft 124 kts 86°
2026-04-30 04:02 48.33246 11.64278 3046 ft 122 kts 86°
2026-04-30 04:02 48.33342 11.65554 3013 ft 125 kts 85°
2026-04-30 04:03 48.33446 11.66867 2831 ft 128 kts 84°
2026-04-30 04:03 48.33516 11.67752 2700 ft 130 kts 84°
2026-04-30 04:03 48.33615 11.69117 2438 ft 133 kts 84°
2026-04-30 04:03 48.33712 11.70503 2174 ft 133 kts 83°
2026-04-30 04:04 48.33827 11.71889 1963 ft 134 kts 83°
2026-04-30 04:04 48.33966 11.73732 1706 ft 132 kts 83°
2026-04-30 04:04 48.34070 11.75096 1525 ft 131 kts 83°
2026-04-30 04:04 48.34162 11.76318 1479 ft 95 kts 83°
2026-04-30 04:05 48.34207 11.76887 1477 ft 72 kts 83°
2026-04-30 04:05 48.34253 11.77501 1478 ft 48 kts 82°
2026-04-30 04:05 48.34285 11.77924 1490 ft 35 kts 83°
2026-04-30 04:05 48.34332 11.78232 1480 ft 27 kts 63°
2026-04-30 04:06 48.34462 11.78522 1475 ft 24 kts 53°
2026-04-30 04:06 48.34560 11.78718 1475 ft 23 kts 53°
2026-04-30 04:06 48.34630 11.78913 1482 ft 21 kts 79°
2026-04-30 04:06 48.34644 11.79056 1488 ft 20 kts 82°
2026-04-30 04:07 48.34660 11.79259 1490 ft 20 kts 84°
2026-04-30 04:07 48.34674 11.79462 1490 ft 19 kts 84°
2026-04-30 04:07 48.34691 11.79660 1478 ft 17 kts 70°
2026-04-30 04:08 48.34898 11.79687 1479 ft 17 kts 354°
2026-04-30 04:08 48.35023 11.79664 1490 ft 13 kts 353°
2026-04-30 04:08 48.35094 11.79701 1477 ft 11 kts 65°
2026-04-30 04:08 48.35110 11.79815 1486 ft 12 kts 83°
2026-04-30 04:09 48.35120 11.79940 1488 ft 12 kts 83°
2026-04-30 04:09 48.35130 11.80071 1476 ft 13 kts 83°
2026-04-30 04:09 48.35147 11.80180 1475 ft 4 kts 24°
2026-04-30 04:09 48.35190 11.80188 1485 ft 7 kts
2026-04-30 04:10 48.35232 11.80183 1486 ft 4 kts 330°
2026-04-30 04:10 48.35247 11.80156 1487 ft 3 kts 287°
2026-04-30 04:10 48.35249 11.80117 1490 ft 3 kts 269°
2026-04-30 04:10 48.35248 11.80089 1490 ft 2 kts 263°
2026-04-30 04:11 48.35247 11.80071 1490 ft 1 kts 260°
2026-04-30 04:11 48.35245 11.80055 1490 ft 0 kts 263°